Tracking 29033 objects as of 22-Jun-2024
HD Live streaming from Space Station
objects crossing your sky now

SL-16 DEB

Track SL-16 DEB now!
10-day predictions


NORAD ID: 28357
Int'l Code: 2004-021F
Perigee: 848.9 km
Apogee: 1,141.2 km
Inclination: 71.1 °
Period: 104.9 minutes
Semi major axis: 7366 km
RCS: 0.0866 m2 (small)
Launch date: June 10, 2004
Source: Commonwealth of Independent States (former USSR) (CIS)
Launch site: TYURATAM MISSILE AND SPACE COMPLEX (TTMTR)

Note: This is SATELLITE DEBRIS
Your satellite tracking list
Your tracking list is empty




NASA's NSSDC Master Catalog

Two Line Element Set (TLE):
1 28357U 04021F   24173.97110189  .00000218  00000-0  24289-3 0  9994
2 28357  71.0727  97.7528 0198425  49.9327  34.4551 13.73253769  3306
Source of the keplerian elements: AFSPC